Location: Alston School (historical)
(35.5076°N, 89.8251°W)
Time: 04:20:53
(UTC+00:00)

Cosmos 1933 - Pass Details

Date: 09 December 2025
Orbit: 510 x 517 km, 82.5° (Epoch: 17 January)

Event Time Altitude Azimuth Distance (km) Brightness Sun altitude
Rises 23:40:34 0° 188° (S) 2,624 7.2 -10.9°
Reaches altitude 10° 23:42:41 10° 189° (S) 1,741 6.3 -11.3°
Maximum altitude 23:46:30 81° 277° (W) 528 3.3 -12.0°
Drops below altitude 10° 23:50:21 10° 5° (N) 1,750 5.6 -12.8°
Sets 23:52:29 0° 6° (N) 2,640 6.5 -13.2°
